When you browse on this site, cookies collect data to enhance your experience and personalize the content and advertising you see.
Visit our Privacy Policy to learn more. By continuing to use the site, you agree to this use of cookies and data.
  • In Romania
  • List of Countries
  • For 7 days
  • Water Temperature
  • Satellite Maps
  • Weather Map
  • Weather Widgets
  • user-avatar
    Login

    Hourly Weather Matlock

    Today, 19 April, Friday

    Time Temperature Precipitation Wind Pressure Humidity
    00:00 +7°C° 0 mm 2 mps 754 mmHg 91%
    01:00 +7°C° 0 mm 2 mps 754 mmHg 91%
    02:00 +7°C° 0 mm 3 mps 754 mmHg 91%
    03:00 +5°C° 0 mm 3 mps 754 mmHg 91%
    04:00 +7°C° 0 mm 3 mps 755 mmHg 90%
    05:00 +7°C° 0 mm 3 mps 755 mmHg 90%
    06:00 +7°C° 0 mm 3 mps 755 mmHg 89%
    07:00 +9°C° 0 mm 3 mps 755 mmHg 84%
    08:00 +11°C° 0 mm 3 mps 755 mmHg 79%
    09:00 +13°C° 0 mm 3 mps 756 mmHg 74%
    10:00 +15°C° 0 mm 4 mps 756 mmHg 70%
    11:00 +17°C° 0 mm 4 mps 756 mmHg 66%
    12:00 +19°C° 0 mm 4 mps 756 mmHg 62%
    13:00 +19°C° 0 mm 4 mps 756 mmHg 61%
    14:00 +20°C° 0 mm 3 mps 756 mmHg 60%
    15:00 +20°C° 0 mm 3 mps 756 mmHg 59%
    16:00 +19°C° 0 mm 3 mps 756 mmHg 65%
    17:00 +18°C° 0 mm 3 mps 756 mmHg 70%
    18:00 +17°C° 0 mm 2 mps 756 mmHg 76%
    19:00 +15°C° 0 mm 2 mps 757 mmHg 80%
    20:00 +13°C° 0 mm 2 mps 757 mmHg 85%
    21:00 +10°C° 0 mm 2 mps 757 mmHg 89%
    22:00 +10°C° 0 mm 1 mps 757 mmHg 88%
    23:00 +10°C° 0 mm 1 mps 757 mmHg 87%

    Tomorrow, 20 April, Saturday

    Time Temperature Precipitation Wind Pressure Humidity
    00:00 +9°C° 0 mm 1 mps 757 mmHg 86%
    01:00 +9°C° 0 mm 1 mps 757 mmHg 86%
    02:00 +8°C° 0 mm 1 mps 757 mmHg 85%
    03:00 +8°C° 0 mm 1 mps 757 mmHg 84%
    04:00 +8°C° 0 mm 1 mps 757 mmHg 83%
    05:00 +9°C° 0 mm 1 mps 757 mmHg 81%
    06:00 +9°C° 0 mm 1 mps 757 mmHg 80%
    07:00 +11°C° 0 mm 1 mps 757 mmHg 74%
    08:00 +13°C° 0 mm 1 mps 757 mmHg 68%
    09:00 +15°C° 0 mm 1 mps 757 mmHg 62%
    10:00 +18°C° 0 mm 1 mps 757 mmHg 59%
    11:00 +19°C° 0 mm 1 mps 757 mmHg 55%
    12:00 +20°C° 0 mm 1 mps 757 mmHg 51%
    13:00 +21°C° 0 mm 1 mps 757 mmHg 50%
    14:00 +21°C° 0 mm 1 mps 756 mmHg 49%
    15:00 +21°C° 0 mm 1 mps 756 mmHg 47%
    16:00 +21°C° 0 mm 1 mps 756 mmHg 54%
    17:00 +19°C° 0 mm 2 mps 755 mmHg 61%
    18:00 +18°C° 0 mm 2 mps 755 mmHg 68%
    19:00 +16°C° 0 mm 2 mps 755 mmHg 75%
    20:00 +14°C° 0 mm 2 mps 755 mmHg 82%
    21:00 +12°C° 0 mm 2 mps 755 mmHg 89%
    22:00 +12°C° 0 mm 1 mps 755 mmHg 89%
    23:00 +11°C° 0 mm 1 mps 755 mmHg 88%

    Day after tomorrow, 21 April, Sunday

    Time Temperature Precipitation Wind Pressure Humidity
    00:00 +10°C° 0 mm 1 mps 754 mmHg 88%
    01:00 +9°C° 0 mm 1 mps 754 mmHg 88%
    02:00 +9°C° 0 mm 1 mps 753 mmHg 87%
    03:00 +8°C° 0 mm 1 mps 753 mmHg 86%
    04:00 +9°C° 0 mm 1 mps 753 mmHg 85%
    05:00 +9°C° 0 mm 1 mps 752 mmHg 83%
    06:00 +9°C° 0 mm 1 mps 752 mmHg 81%
    07:00 +11°C° 0 mm 1 mps 752 mmHg 75%
    08:00 +13°C° 0 mm 1 mps 751 mmHg 69%
    09:00 +15°C° 0 mm 2 mps 751 mmHg 63%
    10:00 +16°C° 0 mm 2 mps 750 mmHg 60%
    11:00 +18°C° 0 mm 2 mps 750 mmHg 56%
    12:00 +19°C° 0 mm 3 mps 749 mmHg 53%
    13:00 +19°C° 0 mm 3 mps 749 mmHg 53%
    14:00 +19°C° 0 mm 3 mps 748 mmHg 54%
    15:00 +20°C° 0 mm 3 mps 747 mmHg 54%
    16:00 +19°C° 0 mm 3 mps 747 mmHg 59%
    17:00 +18°C° 0 mm 3 mps 746 mmHg 65%
    18:00 +17°C° 0 mm 2 mps 746 mmHg 70%
    19:00 +16°C° 0 mm 2 mps 746 mmHg 74%
    20:00 +14°C° 0 mm 2 mps 746 mmHg 79%
    21:00 +13°C° 0 mm 2 mps 746 mmHg 83%
    22:00 +12°C° 0 mm 2 mps 745 mmHg 85%
    23:00 +10°C° 0 mm 2 mps 745 mmHg 87%

    22 April, Monday

    Time Temperature Precipitation Wind Pressure Humidity
    00:00 +9°C° 0 mm 2 mps 744 mmHg 89%
    01:00 +9°C° 0 mm 2 mps 744 mmHg 90%
    02:00 +8°C° 0 mm 2 mps 743 mmHg 90%
    03:00 +8°C° 0 mm 2 mps 742 mmHg 91%
    04:00 +8°C° 0 mm 2 mps 742 mmHg 91%
    05:00 +8°C° 0 mm 2 mps 742 mmHg 90%
    06:00 +8°C° 0 mm 2 mps 741 mmHg 90%
    07:00 +10°C° 0 mm 2 mps 741 mmHg 84%
    08:00 +12°C° 0 mm 3 mps 741 mmHg 77%
    09:00 +14°C° 0 mm 4 mps 740 mmHg 71%
    10:00 +15°C° 0 mm 4 mps 740 mmHg 66%
    11:00 +17°C° 0 mm 5 mps 740 mmHg 62%
    12:00 +19°C° 0 mm 6 mps 739 mmHg 57%
    13:00 +19°C° 0 mm 5 mps 739 mmHg 57%
    14:00 +19°C° 0 mm 5 mps 738 mmHg 57%
    15:00 +20°C° 0 mm 5 mps 737 mmHg 57%
    16:00 +19°C° 0 mm 5 mps 737 mmHg 62%
    17:00 +17°C° 0 mm 5 mps 737 mmHg 67%
    18:00 +16°C° 0 mm 5 mps 737 mmHg 72%
    19:00 +14°C° 0 mm 4 mps 737 mmHg 74%
    20:00 +13°C° 0 mm 4 mps 737 mmHg 75%
    21:00 +11°C° 0 mm 4 mps 736 mmHg 77%
    22:00 +10°C° 0 mm 4 mps 736 mmHg 79%
    23:00 +8°C° 0 mm 4 mps 736 mmHg 82%

    23 April, Tuesday

    Time Temperature Precipitation Wind Pressure Humidity
    00:00 +9°C° 0 mm 3 mps 735 mmHg 85%
    01:00 +8°C° 0 mm 4 mps 735 mmHg 85%
    02:00 +8°C° 0 mm 4 mps 735 mmHg 85%
    03:00 +7°C° 0 mm 4 mps 735 mmHg 85%
    04:00 +7°C° 0 mm 4 mps 735 mmHg 84%
    05:00 +7°C° 0 mm 4 mps 735 mmHg 83%
    06:00 +7°C° 0 mm 4 mps 734 mmHg 82%
    07:00 +8°C° 0 mm 5 mps 735 mmHg 78%
    08:00 +10°C° 0 mm 5 mps 735 mmHg 75%
    09:00 +11°C° 0 mm 6 mps 735 mmHg 71%
    10:00 +13°C° 0 mm 6 mps 734 mmHg 69%
    11:00 +15°C° 0 mm 6 mps 734 mmHg 67%
    12:00 +16°C° 0 mm 6 mps 734 mmHg 65%
    13:00 +16°C° 0 mm 6 mps 734 mmHg 65%
    14:00 +16°C° 0 mm 6 mps 734 mmHg 65%
    15:00 +16°C° 0 mm 6 mps 733 mmHg 65%
    16:00 +15°C° 0 mm 6 mps 733 mmHg 68%
    17:00 +14°C° 0 mm 5 mps 733 mmHg 72%
    18:00 +13°C° 0 mm 5 mps 733 mmHg 75%
    19:00 +11°C° 0 mm 4 mps 733 mmHg 81%
    20:00 +8°C° 0 mm 4 mps 734 mmHg 87%
    21:00 +8°C° 0 mm 3 mps 734 mmHg 92%
    22:00 +7°C° 0 mm 3 mps 734 mmHg 93%
    23:00 +7°C° 0 mm 2 mps 734 mmHg 94%

    24 April, Wednesday

    Time Temperature Precipitation Wind Pressure Humidity
    00:00 +6°C° 0 mm 2 mps 734 mmHg 95%
    01:00 +6°C° 0 mm 2 mps 734 mmHg 96%
    02:00 +6°C° 0 mm 2 mps 733 mmHg 96%
    03:00 +6°C° 0 mm 2 mps 733 mmHg 97%
    04:00 +6°C° 0 mm 2 mps 733 mmHg 95%
    05:00 +6°C° 0 mm 2 mps 733 mmHg 94%
    06:00 +7°C° 0 mm 3 mps 733 mmHg 93%
    07:00 +8°C° 0 mm 3 mps 733 mmHg 89%
    08:00 +10°C° 0 mm 4 mps 733 mmHg 85%
    09:00 +12°C° 0 mm 4 mps 733 mmHg 82%
    10:00 +12°C° 0.5 mm 4 mps 734 mmHg 84%
    11:00 +13°C° 0.5 mm 5 mps 734 mmHg 87%
    12:00 +13°C° 0.5 mm 5 mps 734 mmHg 90%
    13:00 +13°C° 0.3 mm 6 mps 734 mmHg 85%
    14:00 +14°C° 0.3 mm 6 mps 734 mmHg 81%
    15:00 +14°C° 0.3 mm 6 mps 734 mmHg 77%
    16:00 +13°C° 0 mm 6 mps 734 mmHg 76%
    17:00 +13°C° 0 mm 5 mps 735 mmHg 75%
    18:00 +12°C° 0 mm 5 mps 735 mmHg 74%
    19:00 +10°C° 0 mm 5 mps 735 mmHg 75%
    20:00 +10°C° 0 mm 4 mps 735 mmHg 77%
    21:00 +8°C° 0 mm 4 mps 736 mmHg 79%
    22:00 +8°C° 0 mm 4 mps 736 mmHg 82%
    23:00 +7°C° 0 mm 4 mps 735 mmHg 84%
    Show more